Regional Weather Roundup
Issued by NWS

Home | Current Version | Previous Version | Graphics & Text | Print | Product List | Glossary On
Versions: 1 2 3 4 5 6 7 8 9 10 11 12 13 14 15 16 17 18 19 20 21 22 23 24 25 26 27 28 29 30 31 32 33 34 35 36 37 38 39 40 41 42 43 44 45 46 47 48 49 50
000
ASUS44 KMEG 290410
RWRTN
TENNESSEE HOURLY STATE WEATHER ROUNDUP
NATIONAL WEATHER SERVICE MEMPHIS TN
1100 PM CDT SUN MAY 28 2017

TNZ002-004-019-021-049-052-054-088>092-290500-
WEST TENNESSEE

CITY           SKY/WX    TMP DP  RH WIND       PRES   REMARKS
MEMPHIS INTL   CLOUDY    73  70  90 SW5       29.93R
NWS MEMPHIS      N/A     71 N/A N/A MISG        N/A
JACKSON        CLOUDY    68  67  96 CALM      29.93S
DYERSBURG        N/A    N/A N/A N/A MISG        N/A
SOMERVILLE     CLEAR     68  68 100 CALM      29.92R
COVINGTON      CLEAR     70  68  94 CALM      29.92S
UNION CITY     MOCLDY    68  66  94 S3        29.91F
BOLIVAR        CLEAR     66  64  94 S3        29.93S
PARIS          CLOUDY    64  63  94 CALM      29.92F
HUNTINGDON     MOCLDY    66  66 100 CALM      29.92F
LEXINGTON      CLEAR     64  64 100 MISG      29.93S FOG
SELMER         CLEAR     66  64  94 CALM      29.93F
SAVANNAH       CLEAR     66  64  94 CALM      29.93F
$$

TNZ008-025-027-028-033-062-065-066-290500-
NORTH MIDDLE TENNESSEE

CITY           SKY/WX    TMP DP  RH WIND       PRES   REMARKS
NASHVILLE      PTCLDY    70  64  81 W5        29.94S
PORTLAND       CLEAR     68  64  88 CALM      29.92S
CLARKSVILLE    PTCLDY    66  63  90 W5        29.92S
SMYRNA         CLEAR     70  64  81 W3        29.94S
COOKEVILLE     CLOUDY    66  66 100 CALM      29.92F
GALLATIN       CLEAR     70  64  83 CALM      29.94F
CROSSVILLE     CLOUDY    62  61  96 CALM      29.97S
$$

TNZ061-075-076-078-094-096-097-290500-
SOUTH MIDDLE TENNESSEE

CITY           SKY/WX    TMP DP  RH WIND       PRES   REMARKS
FAYETTEVILLE   PTCLDY    70  66  88 CALM      29.94F
TULLAHOMA      CLOUDY    70  64  83 CALM      29.96S
WINCHESTER     CLOUDY    68  66  94 CALM        N/A
MCMINNVILLE    CLOUDY    70  66  88 W3        29.94F
COLUMBIA       CLEAR     68  64  88 CALM      29.92S
SHELBYVILLE    MOCLDY    70  64  83 W5        29.94S
$$

TNZ017-018-042-046-047-290500-
NORTHEAST TENNESSEE

CITY           SKY/WX    TMP DP  RH WIND       PRES   REMARKS
TRI CITIES     MOCLDY    65  63  93 CALM      29.93S
ELIZABETHTON   CLOUDY    68  63  83 CALM      29.94R
$$

TNZ012-013-036-069-073-074-290500-
CENTRAL EAST TENNESSEE

CITY           SKY/WX    TMP DP  RH WIND       PRES   REMARKS
KNOXVILLE      MOCLDY    69  63  81 SW5       29.92R
OAK RIDGE      CLOUDY    68  63  84 CALM      29.94R
DOWNTOWN KNOXV MOCLDY    64  64 100 CALM      29.93R
GATLINBURG     CLEAR     64  61  88 CALM      29.93R
MORRISTOWN     CLEAR     70  64  83 W6        29.92R
JACKSBORO      CLOUDY    64  63  94 CALM      29.96R
$$

TNZ083-085-099-290500-
SOUTHEAST TENNESSEE

CITY           SKY/WX    TMP DP  RH WIND       PRES   REMARKS
CHATTANOOGA    MOCLDY    69  65  86 CALM      29.93S
$$

SKY/WX REPORTED AS FAIR MEANS FEW OR NO CLOUDS BELOW
12 THOUSAND FEET.





USA.gov is the U.S. government's official web portal to all federal, state and local government web resources and services.